User: anonymous   Login
Location: 5810 Zion Rd, Cleves, OH 45002, USA
(39.1922°N, 84.7113°W)
Time: 15:24:55
(UTC-05:00)
Language:

VELOX 1 - Orbit

View from above orbital plane
View from above orbital plane
View from above satellite
View from above satellite

Ground track
Ground track

The orbit data is extracted from the following two-line orbital elements,

1 40057U 14034E   20020.47664750  .00000233  00000-0  40053-4 0  9995
2 40057  98.2578 153.5733 0009683 261.3003  98.7110 14.77785821299630
Epoch (UTC): 20 January 2020 11:26:22
Eccentricity: 0.0009683
inclination: 98.2578°
perigee height: 629 km
apogee height: 643 km
right ascension of ascending node: 153.5733°
argument of perigee: 261.3003°
revolutions per day: 14.77785821
mean anomaly at epoch: 98.7110°
orbit number at epoch: 29963

The dashed part of the orbit path shows where the satellite is in the earth's shadow,  

DLR